Year,Month,Day,Hour,Minute,Value (Times are PST for temperature in C)
2012,07,26,00,00,15.60
2012,07,26,00,01,15.50
2012,07,26,00,02,15.50
2012,07,26,00,03,15.50
2012,07,26,00,04,15.50
2012,07,26,00,05,15.50
2012,07,26,00,06,15.50
2012,07,26,00,07,15.50
2012,07,26,00,08,15.50
2012,07,26,00,09,15.50
2012,07,26,00,10,15.50
2012,07,26,00,11,15.60
2012,07,26,00,12,15.60
2012,07,26,00,13,15.60
2012,07,26,00,14,15.60
2012,07,26,00,15,15.60
2012,07,26,00,16,15.60
2012,07,26,00,17,15.50
2012,07,26,00,18,15.50
2012,07,26,00,19,15.50
2012,07,26,00,20,15.50
2012,07,26,00,21,15.50
2012,07,26,00,22,15.50
2012,07,26,00,23,15.50
2012,07,26,00,24,15.40
2012,07,26,00,25,15.40
2012,07,26,00,26,15.40
2012,07,26,00,27,15.40
2012,07,26,00,28,15.40
2012,07,26,00,29,15.40
2012,07,26,00,30,15.40
2012,07,26,00,31,15.30
2012,07,26,00,32,15.30
2012,07,26,00,33,15.30
2012,07,26,00,34,15.30
2012,07,26,00,35,15.40
2012,07,26,00,36,15.40
2012,07,26,00,37,15.40
2012,07,26,00,38,15.50
2012,07,26,00,39,15.50
2012,07,26,00,40,15.60
2012,07,26,00,41,15.60
2012,07,26,00,42,15.60
2012,07,26,00,43,15.60
2012,07,26,00,44,15.70
2012,07,26,00,45,15.70
2012,07,26,00,46,15.70
2012,07,26,00,47,15.70
2012,07,26,00,48,15.70
2012,07,26,00,49,15.80
2012,07,26,00,50,15.80
2012,07,26,00,51,15.80
2012,07,26,00,52,15.80
2012,07,26,00,53,15.80
2012,07,26,00,54,15.80
2012,07,26,00,55,15.80
2012,07,26,00,56,15.80
2012,07,26,00,57,15.90
2012,07,26,00,58,15.90
2012,07,26,00,59,15.90
2012,07,26,01,00,15.90
2012,07,26,01,01,15.90
2012,07,26,01,02,15.90
2012,07,26,01,03,15.90
2012,07,26,01,04,15.90
2012,07,26,01,05,15.90
2012,07,26,01,06,15.90
2012,07,26,01,07,15.90
2012,07,26,01,08,16.00
2012,07,26,01,09,16.00
2012,07,26,01,10,16.00
2012,07,26,01,11,16.00
2012,07,26,01,12,16.00
2012,07,26,01,13,16.00
2012,07,26,01,14,16.00
2012,07,26,01,15,16.00
2012,07,26,01,16,16.00
2012,07,26,01,17,16.00
2012,07,26,01,18,16.00
2012,07,26,01,19,16.00
2012,07,26,01,20,16.00
2012,07,26,01,21,16.00
2012,07,26,01,22,16.00
2012,07,26,01,23,15.90
2012,07,26,01,24,15.90
2012,07,26,01,25,15.90
2012,07,26,01,26,15.90
2012,07,26,01,27,15.90
2012,07,26,01,28,15.90
2012,07,26,01,29,15.90
2012,07,26,01,30,15.90
2012,07,26,01,31,15.90
2012,07,26,01,32,15.90
2012,07,26,01,33,15.80
2012,07,26,01,34,15.80
2012,07,26,01,35,15.80
2012,07,26,01,36,15.80
2012,07,26,01,37,15.80
2012,07,26,01,38,15.70
2012,07,26,01,39,15.70
2012,07,26,01,40,15.70
2012,07,26,01,41,15.60
2012,07,26,01,42,15.60
2012,07,26,01,43,15.60
2012,07,26,01,44,15.50
2012,07,26,01,45,15.50
2012,07,26,01,46,15.40
2012,07,26,01,47,15.40
2012,07,26,01,48,15.40
2012,07,26,01,49,15.30
2012,07,26,01,50,15.30
2012,07,26,01,51,15.20
2012,07,26,01,52,15.20
2012,07,26,01,53,15.20
2012,07,26,01,54,15.10
2012,07,26,01,55,15.10
2012,07,26,01,56,15.00
2012,07,26,01,57,15.00
2012,07,26,01,58,15.00
2012,07,26,01,59,15.00
2012,07,26,02,00,15.00
2012,07,26,02,01,15.00
2012,07,26,02,02,15.00
2012,07,26,02,03,15.00
2012,07,26,02,04,15.00
2012,07,26,02,05,15.00
2012,07,26,02,06,15.00
2012,07,26,02,07,15.00
2012,07,26,02,08,15.00
2012,07,26,02,09,15.00
2012,07,26,02,10,14.90
2012,07,26,02,11,14.90
2012,07,26,02,12,14.90
2012,07,26,02,13,14.90
2012,07,26,02,14,14.80
2012,07,26,02,15,14.80
2012,07,26,02,16,14.80
2012,07,26,02,17,14.80
2012,07,26,02,18,14.80
2012,07,26,02,19,14.80
2012,07,26,02,20,14.80
2012,07,26,02,21,14.80
2012,07,26,02,22,14.80
2012,07,26,02,23,14.80
2012,07,26,02,24,14.80
2012,07,26,02,25,14.80
2012,07,26,02,26,14.80
2012,07,26,02,27,14.80
2012,07,26,02,28,14.80
2012,07,26,02,29,14.80
2012,07,26,02,30,14.80
2012,07,26,02,31,14.80
2012,07,26,02,32,14.70
2012,07,26,02,33,14.70
2012,07,26,02,34,14.60
2012,07,26,02,35,14.60
2012,07,26,02,36,14.50
2012,07,26,02,37,14.50
2012,07,26,02,38,14.50
2012,07,26,02,39,14.50
2012,07,26,02,40,14.40
2012,07,26,02,41,14.40
2012,07,26,02,42,14.30
2012,07,26,02,43,14.30
2012,07,26,02,44,14.30
2012,07,26,02,45,14.20
2012,07,26,02,46,14.20
2012,07,26,02,47,14.20
2012,07,26,02,48,14.20
2012,07,26,02,49,14.20
2012,07,26,02,50,14.20
2012,07,26,02,51,14.20
2012,07,26,02,52,14.20
2012,07,26,02,53,14.20
2012,07,26,02,54,14.20
2012,07,26,02,55,14.20
2012,07,26,02,56,14.10
2012,07,26,02,57,14.10
2012,07,26,02,58,14.10
2012,07,26,02,59,14.10
2012,07,26,03,00,14.10
2012,07,26,03,01,14.10
2012,07,26,03,02,14.00
2012,07,26,03,06,14.00
2012,07,26,03,07,13.90
2012,07,26,03,08,13.90
2012,07,26,03,09,13.90
2012,07,26,03,10,13.90
2012,07,26,03,11,13.90
2012,07,26,03,12,13.80
2012,07,26,03,13,13.80
2012,07,26,03,14,13.80
2012,07,26,03,15,13.80
2012,07,26,03,16,13.80
2012,07,26,03,17,13.90
2012,07,26,03,18,13.90
2012,07,26,03,19,13.90
2012,07,26,03,20,13.90
2012,07,26,03,21,13.80
2012,07,26,03,22,13.80
2012,07,26,03,23,13.80
2012,07,26,03,24,13.80
2012,07,26,03,25,13.70
2012,07,26,03,26,13.70
2012,07,26,03,27,13.70
2012,07,26,03,28,13.70
2012,07,26,03,29,13.70
2012,07,26,03,30,13.70
2012,07,26,03,31,13.70
2012,07,26,03,32,13.60
2012,07,26,03,33,13.60
2012,07,26,03,34,13.50
2012,07,26,03,35,13.50
2012,07,26,03,36,13.50
2012,07,26,03,37,13.40
2012,07,26,03,38,13.40
2012,07,26,03,39,13.40
2012,07,26,03,40,13.40
2012,07,26,03,41,13.40
2012,07,26,03,42,13.40
2012,07,26,03,43,13.40
2012,07,26,03,44,13.40
2012,07,26,03,45,13.40
2012,07,26,03,46,13.40
2012,07,26,03,47,13.40
2012,07,26,03,48,13.30
2012,07,26,03,49,13.30
2012,07,26,03,50,13.30
2012,07,26,03,51,13.30
2012,07,26,03,52,13.30
2012,07,26,03,53,13.30
2012,07,26,03,54,13.30
2012,07,26,03,55,13.30
2012,07,26,03,56,13.30
2012,07,26,03,57,13.40
2012,07,26,03,58,13.40
2012,07,26,03,59,13.40
2012,07,26,04,00,13.40
2012,07,26,04,01,13.30
2012,07,26,04,02,13.30
2012,07,26,04,03,13.30
2012,07,26,04,04,13.30
2012,07,26,04,05,13.30
2012,07,26,04,06,13.30
2012,07,26,04,07,13.30
2012,07,26,04,08,13.30
2012,07,26,04,09,13.30
2012,07,26,04,10,13.30
2012,07,26,04,11,13.30
2012,07,26,04,12,13.40
2012,07,26,04,13,13.40
2012,07,26,04,14,13.40
2012,07,26,04,15,13.40
2012,07,26,04,16,13.40
2012,07,26,04,17,13.40
2012,07,26,04,18,13.40
2012,07,26,04,19,13.40
2012,07,26,04,20,13.40
2012,07,26,04,21,13.40
2012,07,26,04,22,13.40
2012,07,26,04,23,13.30
2012,07,26,04,24,13.30
2012,07,26,04,25,13.20
2012,07,26,04,26,13.10
2012,07,26,04,27,13.10
2012,07,26,04,28,13.10
2012,07,26,04,29,13.10
2012,07,26,04,30,13.10
2012,07,26,04,31,13.10
2012,07,26,04,32,13.10
2012,07,26,04,33,13.10
2012,07,26,04,34,13.10
2012,07,26,04,35,13.10
2012,07,26,04,36,13.10
2012,07,26,04,37,13.10
2012,07,26,04,38,13.10
2012,07,26,04,39,13.10
2012,07,26,04,40,13.10
2012,07,26,04,41,13.10
2012,07,26,04,42,13.10
2012,07,26,04,43,13.20
2012,07,26,04,44,13.20
2012,07,26,04,45,13.10
2012,07,26,04,46,13.10
2012,07,26,04,47,13.10
2012,07,26,04,48,13.10
2012,07,26,04,49,13.10
2012,07,26,04,50,13.10
2012,07,26,04,51,13.10
2012,07,26,04,52,13.10
2012,07,26,04,53,13.10
2012,07,26,04,54,13.00
2012,07,26,04,55,13.00
2012,07,26,04,56,12.90
2012,07,26,04,57,12.90
2012,07,26,04,58,12.90
2012,07,26,04,59,12.90
2012,07,26,05,00,12.90
2012,07,26,05,01,12.90
2012,07,26,05,02,12.90
2012,07,26,05,03,12.90
2012,07,26,05,04,12.90
2012,07,26,05,05,12.90
2012,07,26,05,06,12.90
2012,07,26,05,07,12.90
2012,07,26,05,08,12.90
2012,07,26,05,09,12.90
2012,07,26,05,10,12.90
2012,07,26,05,11,12.90
2012,07,26,05,12,12.90
2012,07,26,05,13,12.90
2012,07,26,05,14,12.90
2012,07,26,05,15,12.90
2012,07,26,05,16,13.00
2012,07,26,05,17,13.00
2012,07,26,05,18,13.00
2012,07,26,05,19,13.00
2012,07,26,05,20,13.00
2012,07,26,05,21,13.10
2012,07,26,05,22,13.10
2012,07,26,05,23,13.20
2012,07,26,05,24,13.20
2012,07,26,05,25,13.20
2012,07,26,05,26,13.20
2012,07,26,05,27,13.20
2012,07,26,05,28,13.20
2012,07,26,05,29,13.20
2012,07,26,05,30,13.30
2012,07,26,05,31,13.30
2012,07,26,05,32,13.30
2012,07,26,05,33,13.30
2012,07,26,05,34,13.30
2012,07,26,05,35,13.30
2012,07,26,05,36,13.30
2012,07,26,05,37,13.30
2012,07,26,05,38,13.30
2012,07,26,05,39,13.30
2012,07,26,05,40,13.30
2012,07,26,05,41,13.30
2012,07,26,05,42,13.30
2012,07,26,05,43,13.30
2012,07,26,05,44,13.30
2012,07,26,05,45,13.40
2012,07,26,05,46,13.40
2012,07,26,05,47,13.40
2012,07,26,05,48,13.40
2012,07,26,05,49,13.40
2012,07,26,05,50,13.30
2012,07,26,05,51,13.30
2012,07,26,05,52,13.30
2012,07,26,05,53,13.30
2012,07,26,05,54,13.30
2012,07,26,05,55,13.30
2012,07,26,05,56,13.30
2012,07,26,05,57,13.30
2012,07,26,05,58,13.30
2012,07,26,05,59,13.30
2012,07,26,06,00,13.30
2012,07,26,06,01,13.30
2012,07,26,06,02,13.40
2012,07,26,06,03,13.40
2012,07,26,06,04,13.50
2012,07,26,06,05,13.50
2012,07,26,06,06,13.50
2012,07,26,06,07,13.50
2012,07,26,06,08,13.50
2012,07,26,06,09,13.50
2012,07,26,06,10,13.40
2012,07,26,06,11,13.50
2012,07,26,06,12,13.50
2012,07,26,06,13,13.50
2012,07,26,06,14,13.50
2012,07,26,06,15,13.50
2012,07,26,06,16,13.50
2012,07,26,06,17,13.60
2012,07,26,06,18,13.60
2012,07,26,06,19,13.60
2012,07,26,06,20,13.60
2012,07,26,06,21,13.50
2012,07,26,06,22,13.50
2012,07,26,06,23,13.50
2012,07,26,06,24,13.50
2012,07,26,06,25,13.50
2012,07,26,06,26,13.50
2012,07,26,06,27,13.60
2012,07,26,06,28,13.60
2012,07,26,06,29,13.60
2012,07,26,06,30,13.60
2012,07,26,06,31,13.60
2012,07,26,06,32,13.60
2012,07,26,06,33,13.60
2012,07,26,06,34,13.50
2012,07,26,06,35,13.50
2012,07,26,06,36,13.40
2012,07,26,06,37,13.40
2012,07,26,06,38,13.40
2012,07,26,06,39,13.40
2012,07,26,06,40,13.40
2012,07,26,06,41,13.40
2012,07,26,06,42,13.40
2012,07,26,06,43,13.40
2012,07,26,06,44,13.40
2012,07,26,06,45,13.50
2012,07,26,06,46,13.50
2012,07,26,06,47,13.50
2012,07,26,06,48,13.50
2012,07,26,06,49,13.50
2012,07,26,06,50,13.50
2012,07,26,06,51,13.50
2012,07,26,06,52,13.50
2012,07,26,06,53,13.50
2012,07,26,06,54,13.50
2012,07,26,06,55,13.50
2012,07,26,06,56,13.60
2012,07,26,06,57,13.60
2012,07,26,06,58,13.60
2012,07,26,06,59,13.70
2012,07,26,07,00,13.70
2012,07,26,07,01,13.80
2012,07,26,07,02,13.90
2012,07,26,07,03,14.00
2012,07,26,07,04,14.10
2012,07,26,07,05,14.10
2012,07,26,07,06,14.20
2012,07,26,07,07,14.20
2012,07,26,07,08,14.20
2012,07,26,07,09,14.30
2012,07,26,07,10,14.30
2012,07,26,07,11,14.30
2012,07,26,07,12,14.40
2012,07,26,07,13,14.50
2012,07,26,07,14,14.70
2012,07,26,07,15,14.80
2012,07,26,07,16,14.90
2012,07,26,07,17,15.00
2012,07,26,07,18,15.00
2012,07,26,07,19,15.00
2012,07,26,07,20,15.10
2012,07,26,07,21,15.20
2012,07,26,07,22,15.30
2012,07,26,07,23,15.30
2012,07,26,07,24,15.30
2012,07,26,07,25,15.30
2012,07,26,07,26,15.30
2012,07,26,07,27,15.40
2012,07,26,07,28,15.40
2012,07,26,07,29,15.40
2012,07,26,07,30,15.40
2012,07,26,07,31,15.50
2012,07,26,07,32,15.50
2012,07,26,07,33,15.50
2012,07,26,07,34,15.60
2012,07,26,07,35,15.60
2012,07,26,07,36,15.70
2012,07,26,07,37,15.80
2012,07,26,07,38,15.80
2012,07,26,07,39,15.90
2012,07,26,07,40,15.90
2012,07,26,07,41,16.00
2012,07,26,07,42,16.00
2012,07,26,07,43,16.10
2012,07,26,07,44,16.10
2012,07,26,07,45,16.20
2012,07,26,07,46,16.30
2012,07,26,07,47,16.30
2012,07,26,07,48,16.40
2012,07,26,07,49,16.40
2012,07,26,07,50,16.50
2012,07,26,07,51,16.50
2012,07,26,07,52,16.60
2012,07,26,07,53,16.60
2012,07,26,07,54,16.70
2012,07,26,07,55,16.70
2012,07,26,07,56,16.70
2012,07,26,07,57,16.70
2012,07,26,07,58,16.70
2012,07,26,07,59,16.80
2012,07,26,08,00,16.80
2012,07,26,08,01,16.90
2012,07,26,08,02,17.00
2012,07,26,08,03,17.00
2012,07,26,08,04,17.10
2012,07,26,08,05,17.20
2012,07,26,08,06,17.20
2012,07,26,08,07,17.30
2012,07,26,08,08,17.30
2012,07,26,08,09,17.30
2012,07,26,08,10,17.30
2012,07,26,08,11,17.40
2012,07,26,08,12,17.40
2012,07,26,08,13,17.40
2012,07,26,08,14,17.40
2012,07,26,08,15,17.50
2012,07,26,08,16,17.50
2012,07,26,08,17,17.50
2012,07,26,08,18,17.50
2012,07,26,08,19,17.60
2012,07,26,08,20,17.60
2012,07,26,08,21,17.60
2012,07,26,08,22,17.60
2012,07,26,08,23,17.60
2012,07,26,08,24,17.70
2012,07,26,08,25,17.70
2012,07,26,08,26,17.70
2012,07,26,08,27,17.70
2012,07,26,08,28,17.70
2012,07,26,08,29,17.80
2012,07,26,08,30,17.80
2012,07,26,08,31,17.80
2012,07,26,08,32,17.80
2012,07,26,08,33,17.90
2012,07,26,08,34,18.00
2012,07,26,08,35,18.00
2012,07,26,08,36,18.10
2012,07,26,08,37,18.10
2012,07,26,08,38,18.20
2012,07,26,08,39,18.30
2012,07,26,08,40,18.30
2012,07,26,08,41,18.40
2012,07,26,08,42,18.50
2012,07,26,08,43,18.60
2012,07,26,08,44,18.70
2012,07,26,08,45,18.70
2012,07,26,08,46,18.80
2012,07,26,08,47,18.90
2012,07,26,08,48,19.00
2012,07,26,08,49,19.00
2012,07,26,08,50,19.10
2012,07,26,08,51,19.20
2012,07,26,08,52,19.20
2012,07,26,08,53,19.30
2012,07,26,08,54,19.30
2012,07,26,08,55,19.40
2012,07,26,08,56,19.50
2012,07,26,08,57,19.50
2012,07,26,08,58,19.60
2012,07,26,08,59,19.60
2012,07,26,09,00,19.60
2012,07,26,09,01,19.60
2012,07,26,09,02,19.60
2012,07,26,09,03,19.60
2012,07,26,09,04,19.60
2012,07,26,09,05,19.70
2012,07,26,09,06,19.80
2012,07,26,09,07,19.80
2012,07,26,09,08,19.90
2012,07,26,09,09,19.90
2012,07,26,09,10,20.00
2012,07,26,09,11,20.00
2012,07,26,09,12,20.00
2012,07,26,09,13,20.00
2012,07,26,09,14,20.00
2012,07,26,09,15,20.00
2012,07,26,09,16,20.10
2012,07,26,09,17,20.20
2012,07,26,09,18,20.20
2012,07,26,09,19,20.30
2012,07,26,09,20,20.30
2012,07,26,09,21,20.30
2012,07,26,09,22,20.20
2012,07,26,09,23,20.20
2012,07,26,09,24,20.10
2012,07,26,09,25,20.10
2012,07,26,09,26,20.00
2012,07,26,09,27,20.00
2012,07,26,09,28,20.00
2012,07,26,09,29,20.00
2012,07,26,09,30,19.90
2012,07,26,09,31,19.90
2012,07,26,09,32,19.90
2012,07,26,09,33,19.90
2012,07,26,09,34,19.90
2012,07,26,09,35,19.90
2012,07,26,09,36,19.90
2012,07,26,09,37,19.90
2012,07,26,09,38,20.00
2012,07,26,09,39,20.10
2012,07,26,09,40,20.20
2012,07,26,09,41,20.30
2012,07,26,09,42,20.40
2012,07,26,09,43,20.60
2012,07,26,09,44,20.70
2012,07,26,09,45,20.80
2012,07,26,09,46,20.90
2012,07,26,09,47,21.00
2012,07,26,09,48,21.10
2012,07,26,09,49,21.10
2012,07,26,09,50,21.20
2012,07,26,09,51,21.30
2012,07,26,09,52,21.30
2012,07,26,09,53,21.30
2012,07,26,09,54,21.40
2012,07,26,09,55,21.40
2012,07,26,09,56,21.40
2012,07,26,09,57,21.50
2012,07,26,09,58,21.60
2012,07,26,09,59,21.70
2012,07,26,10,00,21.80
2012,07,26,10,01,22.00
2012,07,26,10,02,22.10
2012,07,26,10,03,22.20
2012,07,26,10,04,22.20
2012,07,26,10,05,22.30
2012,07,26,10,06,22.40
2012,07,26,10,07,22.50
2012,07,26,10,08,22.60
2012,07,26,10,09,22.70
2012,07,26,10,10,22.70
2012,07,26,10,11,22.70
2012,07,26,10,12,22.80
2012,07,26,10,13,22.80
2012,07,26,10,14,22.80
2012,07,26,10,15,22.70
2012,07,26,10,16,22.40
2012,07,26,10,17,22.10
2012,07,26,10,18,22.00
2012,07,26,10,19,21.90
2012,07,26,10,20,21.80
2012,07,26,10,21,21.80
2012,07,26,10,22,21.80
2012,07,26,10,23,21.80
2012,07,26,10,24,21.70
2012,07,26,10,25,21.60
2012,07,26,10,26,21.60
2012,07,26,10,27,21.50
2012,07,26,10,28,21.40
2012,07,26,10,29,21.30
2012,07,26,10,30,21.20
2012,07,26,10,31,21.20
2012,07,26,10,32,21.20
2012,07,26,10,33,21.10
2012,07,26,10,34,21.00
2012,07,26,10,35,21.00
2012,07,26,10,36,20.90
2012,07,26,10,37,20.90
2012,07,26,10,38,21.00
2012,07,26,10,39,21.00
2012,07,26,10,40,21.00
2012,07,26,10,41,21.00
2012,07,26,10,42,21.00
2012,07,26,10,43,21.00
2012,07,26,10,44,20.90
2012,07,26,10,45,20.80
2012,07,26,10,46,20.80
2012,07,26,10,47,20.90
2012,07,26,10,48,20.90
2012,07,26,10,49,20.90
2012,07,26,10,50,21.00
2012,07,26,10,51,21.00
2012,07,26,10,52,21.00
2012,07,26,10,53,21.10
2012,07,26,10,54,21.10
2012,07,26,10,55,21.10
2012,07,26,10,56,21.20
2012,07,26,10,57,21.10
2012,07,26,10,58,21.10
2012,07,26,10,59,21.10
2012,07,26,11,00,21.10
2012,07,26,11,01,21.10
2012,07,26,11,02,21.10
2012,07,26,11,03,21.10
2012,07,26,11,04,21.10
2012,07,26,11,05,21.10
2012,07,26,11,06,21.20
2012,07,26,11,07,21.10
2012,07,26,11,08,21.10
2012,07,26,11,09,21.10
2012,07,26,11,10,21.10
2012,07,26,11,11,21.10
2012,07,26,11,12,21.20
2012,07,26,11,13,21.20
2012,07,26,11,14,21.30
2012,07,26,11,15,21.40
2012,07,26,11,16,21.30
2012,07,26,11,17,21.30
2012,07,26,11,18,21.20
2012,07,26,11,19,21.10
2012,07,26,11,20,21.10
2012,07,26,11,21,21.00
2012,07,26,11,22,21.00
2012,07,26,11,23,20.90
2012,07,26,11,24,20.90
2012,07,26,11,25,20.80
2012,07,26,11,26,20.80
2012,07,26,11,27,20.70
2012,07,26,11,28,20.80
2012,07,26,11,29,20.80
2012,07,26,11,30,20.80
2012,07,26,11,31,20.80
2012,07,26,11,32,20.90
2012,07,26,11,33,20.90
2012,07,26,11,34,20.90
2012,07,26,11,35,21.00
2012,07,26,11,36,21.00
2012,07,26,11,37,21.10
2012,07,26,11,38,21.10
2012,07,26,11,39,21.30
2012,07,26,11,40,21.30
2012,07,26,11,41,21.40
2012,07,26,11,42,21.40
2012,07,26,11,43,21.50
2012,07,26,11,44,21.50
2012,07,26,11,45,21.40
2012,07,26,11,46,21.40
2012,07,26,11,47,21.50
2012,07,26,11,48,21.40
2012,07,26,11,49,21.40
2012,07,26,11,50,21.30
2012,07,26,11,51,21.30
2012,07,26,11,52,21.30
2012,07,26,11,53,21.30
2012,07,26,11,54,21.20
2012,07,26,11,55,21.20
2012,07,26,11,56,21.20
2012,07,26,11,57,21.20
2012,07,26,11,58,21.30
2012,07,26,11,59,21.30
2012,07,26,12,00,21.40
2012,07,26,12,01,21.40
2012,07,26,12,02,21.40
2012,07,26,12,03,21.50
2012,07,26,12,04,21.60
2012,07,26,12,05,21.70
2012,07,26,12,06,21.80
2012,07,26,12,07,21.80
2012,07,26,12,08,21.80
2012,07,26,12,09,21.80
2012,07,26,12,10,21.70
2012,07,26,12,11,21.60
2012,07,26,12,12,21.50
2012,07,26,12,13,21.50
2012,07,26,12,14,21.40
2012,07,26,12,15,21.40
2012,07,26,12,16,21.30
2012,07,26,12,17,21.40
2012,07,26,12,18,21.50
2012,07,26,12,19,21.60
2012,07,26,12,20,21.60
2012,07,26,12,21,21.60
2012,07,26,12,22,21.70
2012,07,26,12,23,21.80
2012,07,26,12,24,21.80
2012,07,26,12,25,21.90
2012,07,26,12,26,22.00
2012,07,26,12,27,22.10
2012,07,26,12,28,22.20
2012,07,26,12,29,22.30
2012,07,26,12,30,22.40
2012,07,26,12,31,22.50
2012,07,26,12,32,22.60
2012,07,26,12,33,22.60
2012,07,26,12,34,22.70
2012,07,26,12,35,22.60
2012,07,26,12,36,22.60
2012,07,26,12,37,22.60
2012,07,26,12,38,22.50
2012,07,26,12,39,22.40
2012,07,26,12,40,22.50
2012,07,26,12,41,22.60
2012,07,26,12,42,22.80
2012,07,26,12,43,22.80
2012,07,26,12,44,22.80
2012,07,26,12,45,22.80
2012,07,26,12,46,22.80
2012,07,26,12,47,22.80
2012,07,26,12,48,22.90
2012,07,26,12,49,23.00
2012,07,26,12,50,23.00
2012,07,26,12,51,23.00
2012,07,26,12,52,23.00
2012,07,26,12,53,23.00
2012,07,26,12,54,23.10
2012,07,26,12,55,23.20
2012,07,26,12,56,23.30
2012,07,26,12,57,23.40
2012,07,26,12,58,23.50
2012,07,26,12,59,23.40
2012,07,26,13,00,23.30
2012,07,26,13,01,23.20
2012,07,26,13,02,23.20
2012,07,26,13,03,23.20
2012,07,26,13,04,23.30
2012,07,26,13,05,23.30
2012,07,26,13,06,23.30
2012,07,26,13,07,23.30
2012,07,26,13,08,23.40
2012,07,26,13,09,23.50
2012,07,26,13,10,23.60
2012,07,26,13,11,23.70
2012,07,26,13,12,23.70
2012,07,26,13,13,23.70
2012,07,26,13,14,23.80
2012,07,26,13,15,23.90
2012,07,26,13,16,24.00
2012,07,26,13,17,23.90
2012,07,26,13,18,23.80
2012,07,26,13,19,23.80
2012,07,26,13,20,23.70
2012,07,26,13,21,23.60
2012,07,26,13,22,23.70
2012,07,26,13,23,23.80
2012,07,26,13,24,23.80
2012,07,26,13,25,23.90
2012,07,26,13,26,24.00
2012,07,26,13,27,24.10
2012,07,26,13,28,24.00
2012,07,26,13,29,24.00
2012,07,26,13,30,23.90
2012,07,26,13,31,24.00
2012,07,26,13,32,24.00
2012,07,26,13,33,24.10
2012,07,26,13,34,24.30
2012,07,26,13,35,24.30
2012,07,26,13,36,24.30
2012,07,26,13,37,24.40
2012,07,26,13,38,24.40
2012,07,26,13,39,24.30
2012,07,26,13,40,24.30
2012,07,26,13,41,24.40
2012,07,26,13,42,24.50
2012,07,26,13,43,24.50
2012,07,26,13,44,24.50
2012,07,26,13,45,24.50
2012,07,26,13,46,24.60
2012,07,26,13,47,24.60
2012,07,26,13,48,24.60
2012,07,26,13,49,24.60
2012,07,26,13,50,24.40
2012,07,26,13,51,24.40
2012,07,26,13,52,24.40
2012,07,26,13,53,24.40
2012,07,26,13,54,24.40
2012,07,26,13,55,24.40
2012,07,26,13,56,24.50
2012,07,26,13,57,24.60
2012,07,26,13,58,24.70
2012,07,26,13,59,24.80
2012,07,26,14,00,24.90
2012,07,26,14,01,25.10
2012,07,26,14,02,25.10
2012,07,26,14,03,25.10
2012,07,26,14,04,25.00
2012,07,26,14,05,24.90
2012,07,26,14,06,24.90
2012,07,26,14,07,24.70
2012,07,26,14,08,24.60
2012,07,26,14,09,24.60
2012,07,26,14,10,24.60
2012,07,26,14,11,24.70
2012,07,26,14,12,24.70
2012,07,26,14,13,24.70
2012,07,26,14,14,24.70
2012,07,26,14,15,24.70
2012,07,26,14,16,24.60
2012,07,26,14,17,24.70
2012,07,26,14,18,24.70
2012,07,26,14,19,24.70
2012,07,26,14,20,24.70
2012,07,26,14,21,24.80
2012,07,26,14,22,24.80
2012,07,26,14,23,24.80
2012,07,26,14,24,24.80
2012,07,26,14,25,24.90
2012,07,26,14,26,25.00
2012,07,26,14,27,25.20
2012,07,26,14,28,25.30
2012,07,26,14,29,25.40
2012,07,26,14,30,25.50
2012,07,26,14,31,25.50
2012,07,26,14,32,25.50
2012,07,26,14,33,25.40
2012,07,26,14,34,25.30
2012,07,26,14,35,25.30
2012,07,26,14,36,25.20
2012,07,26,14,37,25.30
2012,07,26,14,38,25.30
2012,07,26,14,39,25.40
2012,07,26,14,40,25.50
2012,07,26,14,41,25.60
2012,07,26,14,42,25.60
2012,07,26,14,43,25.50
2012,07,26,14,44,25.60
2012,07,26,14,45,25.70
2012,07,26,14,46,25.80
2012,07,26,14,47,25.90
2012,07,26,14,48,25.90
2012,07,26,14,49,25.90
2012,07,26,14,50,25.70
2012,07,26,14,51,25.70
2012,07,26,14,52,25.70
2012,07,26,14,53,25.70
2012,07,26,14,54,25.80
2012,07,26,14,55,25.80
2012,07,26,14,56,25.80
2012,07,26,14,57,25.70
2012,07,26,14,58,25.70
2012,07,26,14,59,25.80
2012,07,26,15,00,25.80
2012,07,26,15,01,25.70
2012,07,26,15,02,25.70
2012,07,26,15,03,25.70
2012,07,26,15,04,25.60
2012,07,26,15,05,25.60
2012,07,26,15,06,25.60
2012,07,26,15,07,25.60
2012,07,26,15,08,25.70
2012,07,26,15,09,25.80
2012,07,26,15,10,25.80
2012,07,26,15,11,25.90
2012,07,26,15,12,25.90
2012,07,26,15,13,26.00
2012,07,26,15,14,26.00
2012,07,26,15,15,26.00
2012,07,26,15,16,25.90
2012,07,26,15,17,25.80
2012,07,26,15,18,25.70
2012,07,26,15,19,25.70
2012,07,26,15,20,25.70
2012,07,26,15,21,25.70
2012,07,26,15,22,25.70
2012,07,26,15,23,25.80
2012,07,26,15,24,25.80
2012,07,26,15,25,25.90
2012,07,26,15,26,25.90
2012,07,26,15,27,26.10
2012,07,26,15,28,26.00
2012,07,26,15,29,26.00
2012,07,26,15,30,26.10
2012,07,26,15,31,26.10
2012,07,26,15,32,26.20
2012,07,26,15,33,26.30
2012,07,26,15,34,26.30
2012,07,26,15,35,26.30
2012,07,26,15,36,26.30
2012,07,26,15,37,26.30
2012,07,26,15,38,26.40
2012,07,26,15,39,26.30
2012,07,26,15,40,26.30
2012,07,26,15,41,26.30
2012,07,26,15,42,26.30
2012,07,26,15,43,26.40
2012,07,26,15,44,26.40
2012,07,26,15,45,26.50
2012,07,26,15,46,26.60
2012,07,26,15,47,26.70
2012,07,26,15,48,26.60
2012,07,26,15,49,26.60
2012,07,26,15,50,26.60
2012,07,26,15,51,26.70
2012,07,26,15,52,26.70
2012,07,26,15,53,26.70
2012,07,26,15,54,26.70
2012,07,26,15,55,26.70
2012,07,26,15,56,26.80
2012,07,26,15,57,26.90
2012,07,26,15,58,27.00
2012,07,26,15,59,27.10
2012,07,26,16,00,27.20
2012,07,26,16,01,27.30
2012,07,26,16,02,27.30
2012,07,26,16,03,27.30
2012,07,26,16,04,27.20
2012,07,26,16,05,27.20
2012,07,26,16,06,27.10
2012,07,26,16,07,27.10
2012,07,26,16,08,27.10
2012,07,26,16,09,27.10
2012,07,26,16,10,27.20
2012,07,26,16,11,27.30
2012,07,26,16,12,27.30
2012,07,26,16,13,27.30
2012,07,26,16,14,27.30
2012,07,26,16,15,27.30
2012,07,26,16,16,27.30
2012,07,26,16,17,27.40
2012,07,26,16,18,27.30
2012,07,26,16,19,27.30
2012,07,26,16,20,27.20
2012,07,26,16,21,27.20
2012,07,26,16,22,27.10
2012,07,26,16,23,27.00
2012,07,26,16,24,26.90
2012,07,26,16,25,26.90
2012,07,26,16,26,26.90
2012,07,26,16,27,26.90
2012,07,26,16,28,26.90
2012,07,26,16,29,27.00
2012,07,26,16,30,27.00
2012,07,26,16,31,27.10
2012,07,26,16,32,27.00
2012,07,26,16,33,27.00
2012,07,26,16,34,27.00
2012,07,26,16,35,27.00
2012,07,26,16,36,27.00
2012,07,26,16,37,27.00
2012,07,26,16,38,27.00
2012,07,26,16,39,27.10
2012,07,26,16,40,27.10
2012,07,26,16,41,27.20
2012,07,26,16,42,27.30
2012,07,26,16,43,27.30
2012,07,26,16,44,27.40
2012,07,26,16,45,27.40
2012,07,26,16,46,27.30
2012,07,26,16,47,27.20
2012,07,26,16,48,27.20
2012,07,26,16,49,27.20
2012,07,26,16,50,27.10
2012,07,26,16,51,27.10
2012,07,26,16,52,27.10
2012,07,26,16,53,27.10
2012,07,26,16,54,27.10
2012,07,26,16,55,27.20
2012,07,26,16,56,27.20
2012,07,26,16,57,27.20
2012,07,26,16,58,27.20
2012,07,26,16,59,27.20
2012,07,26,17,00,27.20
2012,07,26,17,01,27.30
2012,07,26,17,02,27.30
2012,07,26,17,03,27.40
2012,07,26,17,04,27.40
2012,07,26,17,05,27.30
2012,07,26,17,06,27.30
2012,07,26,17,07,27.20
2012,07,26,17,08,27.20
2012,07,26,17,09,27.10
2012,07,26,17,10,27.00
2012,07,26,17,11,26.90
2012,07,26,17,12,26.80
2012,07,26,17,13,26.80
2012,07,26,17,14,26.80
2012,07,26,17,15,26.80
2012,07,26,17,16,26.80
2012,07,26,17,17,26.70
2012,07,26,17,18,26.80
2012,07,26,17,19,26.70
2012,07,26,17,20,26.70
2012,07,26,17,21,26.70
2012,07,26,17,22,26.60